Time,TemperatureF,DewpointF,PressureIn,WindDirection,WindDirectionDegrees,WindSpeedMPH,WindSpeedGustMPH,Humidity,HourlyPrecipIn,Conditions,Clouds,dailyrainin,SoftwareType,DateUTC
2013-01-18 00:00:00,26.9,22.1,30.49,SW,235,4.0,4.0,82,0.00,,,0.00,Wunderground v.1.15,2013-01-18 06:00:00,
2013-01-18 00:05:00,27.0,21.9,30.49,WSW,237,3.0,4.0,81,0.00,,,0.00,Wunderground v.1.15,2013-01-18 06:05:00,
2013-01-18 00:11:00,27.0,21.9,30.49,WSW,237,3.0,3.0,81,0.00,,,0.00,Wunderground v.1.15,2013-01-18 06:11:00,
2013-01-18 00:17:00,27.0,21.9,30.49,SW,233,3.0,5.0,81,0.00,,,0.00,Wunderground v.1.15,2013-01-18 06:17:00,
2013-01-18 00:22:00,27.0,21.9,30.49,SW,235,3.0,5.0,81,0.00,,,0.00,Wunderground v.1.15,2013-01-18 06:22:00,
2013-01-18 00:28:00,26.9,21.8,30.49,SW,235,3.0,5.0,81,0.00,,,0.00,Wunderground v.1.15,2013-01-18 06:28:00,
2013-01-18 00:34:00,26.7,21.7,30.49,SW,235,3.0,5.0,81,0.00,,,0.00,Wunderground v.1.15,2013-01-18 06:34:00,
2013-01-18 00:40:00,26.5,21.5,30.49,SW,225,4.0,4.0,81,0.00,,,0.00,Wunderground v.1.15,2013-01-18 06:40:00,
2013-01-18 00:46:00,26.4,21.7,30.50,SW,223,4.0,4.0,82,0.00,,,0.00,Wunderground v.1.15,2013-01-18 06:46:00,
2013-01-18 00:52:00,26.4,21.7,30.50,SW,223,4.0,5.0,82,0.00,,,0.00,Wunderground v.1.15,2013-01-18 06:52:00,
2013-01-18 00:57:00,26.4,21.7,30.50,SW,225,5.0,6.0,82,0.00,,,0.00,Wunderground v.1.15,2013-01-18 06:57:00,
2013-01-18 01:03:00,26.6,22.1,30.50,SW,218,5.0,5.0,83,0.00,,,0.00,Wunderground v.1.15,2013-01-18 07:03:00,
2013-01-18 01:09:00,26.7,22.2,30.50,SW,222,5.0,6.0,83,0.00,,,0.00,Wunderground v.1.15,2013-01-18 07:09:00,
2013-01-18 01:15:00,26.7,22.2,30.50,SW,225,4.0,6.0,83,0.00,,,0.00,Wunderground v.1.15,2013-01-18 07:15:00,
2013-01-18 01:21:00,26.6,22.1,30.50,SW,221,4.0,6.0,83,0.00,,,0.00,Wunderground v.1.15,2013-01-18 07:21:00,
2013-01-18 01:27:00,26.5,22.3,30.50,SW,218,4.0,6.0,84,0.00,,,0.00,Wunderground v.1.15,2013-01-18 07:27:00,
2013-01-18 01:33:00,26.5,22.3,30.50,SW,215,4.0,5.0,84,0.00,,,0.00,Wunderground v.1.15,2013-01-18 07:33:00,
2013-01-18 01:38:00,26.4,22.2,30.50,SSW,212,4.0,5.0,84,0.00,,,0.00,Wunderground v.1.15,2013-01-18 07:38:00,
2013-01-18 01:44:00,26.3,22.1,30.50,SSW,212,4.0,5.0,84,0.00,,,0.00,Wunderground v.1.15,2013-01-18 07:44:00,
2013-01-18 01:50:00,26.4,22.5,30.50,SSW,210,4.0,4.0,85,0.00,,,0.00,Wunderground v.1.15,2013-01-18 07:50:00,
2013-01-18 01:56:00,26.5,22.3,30.50,SSW,208,4.0,5.0,84,0.00,,,0.00,Wunderground v.1.15,2013-01-18 07:56:00,
2013-01-18 02:02:00,26.5,22.3,30.50,SSW,210,4.0,4.0,84,0.00,,,0.00,Wunderground v.1.15,2013-01-18 08:02:00,
2013-01-18 02:08:00,26.5,22.0,30.50,SSW,210,4.0,5.0,83,0.00,,,0.00,Wunderground v.1.15,2013-01-18 08:08:00,
2013-01-18 02:14:00,26.5,22.3,30.50,SSW,208,4.0,7.0,84,0.00,,,0.00,Wunderground v.1.15,2013-01-18 08:14:00,
2013-01-18 02:19:00,26.4,21.9,30.50,SSW,206,4.0,7.0,83,0.00,,,0.00,Wunderground v.1.15,2013-01-18 08:19:00,
2013-01-18 02:25:00,26.4,21.9,30.50,SSW,204,4.0,5.0,83,0.00,,,0.00,Wunderground v.1.15,2013-01-18 08:25:00,
2013-01-18 02:31:00,26.5,22.0,30.49,SSW,204,5.0,5.0,83,0.00,,,0.00,Wunderground v.1.15,2013-01-18 08:31:00,
2013-01-18 02:37:00,26.5,22.0,30.49,SSW,204,4.0,5.0,83,0.00,,,0.00,Wunderground v.1.15,2013-01-18 08:37:00,
2013-01-18 02:43:00,26.5,21.7,30.49,SSW,202,4.0,7.0,82,0.00,,,0.00,Wunderground v.1.15,2013-01-18 08:43:00,
2013-01-18 02:48:00,26.6,21.8,30.49,SSW,201,5.0,7.0,82,0.00,,,0.00,Wunderground v.1.15,2013-01-18 08:48:00,
2013-01-18 02:54:00,26.7,21.9,30.49,SSW,197,5.0,8.0,82,0.00,,,0.00,Wunderground v.1.15,2013-01-18 08:54:00,
2013-01-18 03:00:00,26.7,21.9,30.49,SSW,197,5.0,5.0,82,0.00,,,0.00,Wunderground v.1.15,2013-01-18 09:00:00,
2013-01-18 03:06:00,26.7,21.9,30.49,SSW,198,5.0,5.0,82,0.00,,,0.00,Wunderground v.1.15,2013-01-18 09:06:00,
2013-01-18 03:12:00,26.7,21.9,30.49,SSW,199,5.0,5.0,82,0.00,,,0.00,Wunderground v.1.15,2013-01-18 09:12:00,
2013-01-18 03:17:00,26.7,21.9,30.49,SSW,196,5.0,7.0,82,0.00,,,0.00,Wunderground v.1.15,2013-01-18 09:17:00,
2013-01-18 03:23:00,26.6,21.8,30.48,SSW,197,5.0,6.0,82,0.00,,,0.00,Wunderground v.1.15,2013-01-18 09:23:00,
2013-01-18 03:29:00,26.5,21.7,30.48,SSW,197,5.0,6.0,82,0.00,,,0.00,Wunderground v.1.15,2013-01-18 09:29:00,
2013-01-18 03:35:00,26.4,21.7,30.48,SSW,196,5.0,7.0,82,0.00,,,0.00,Wunderground v.1.15,2013-01-18 09:35:00,
2013-01-18 03:41:00,26.4,21.7,30.48,SSW,192,5.0,5.0,82,0.00,,,0.00,Wunderground v.1.15,2013-01-18 09:41:00,
2013-01-18 03:46:00,26.3,21.6,30.48,SSW,194,5.0,7.0,82,0.00,,,0.00,Wunderground v.1.15,2013-01-18 09:46:00,
2013-01-18 03:52:00,26.3,21.6,30.47,SSW,194,4.0,4.0,82,0.00,,,0.00,Wunderground v.1.15,2013-01-18 09:52:00,
2013-01-18 03:58:00,26.2,21.5,30.47,SSW,195,3.0,5.0,82,0.00,,,0.00,Wunderground v.1.15,2013-01-18 09:58:00,
2013-01-18 04:04:00,26.2,21.5,30.47,SSW,193,4.0,5.0,82,0.00,,,0.00,Wunderground v.1.15,2013-01-18 10:04:00,
2013-01-18 04:10:00,26.1,21.4,30.47,SSW,193,4.0,6.0,82,0.00,,,0.00,Wunderground v.1.15,2013-01-18 10:10:00,
2013-01-18 04:16:00,26.1,21.6,30.47,SSW,197,5.0,6.0,83,0.00,,,0.00,Wunderground v.1.15,2013-01-18 10:16:00,
2013-01-18 04:22:00,26.0,21.5,30.47,SSW,196,5.0,5.0,83,0.00,,,0.00,Wunderground v.1.15,2013-01-18 10:22:00,
2013-01-18 04:27:00,26.0,21.5,30.48,SSW,198,5.0,8.0,83,0.00,,,0.00,Wunderground v.1.15,2013-01-18 10:27:00,
2013-01-18 04:33:00,26.0,21.5,30.48,SSW,192,5.0,6.0,83,0.00,,,0.00,Wunderground v.1.15,2013-01-18 10:33:00,
2013-01-18 04:39:00,26.0,21.5,30.48,South,191,5.0,6.0,83,0.00,,,0.00,Wunderground v.1.15,2013-01-18 10:39:00,
2013-01-18 04:45:00,26.0,21.5,30.48,SSW,196,5.0,6.0,83,0.00,,,0.00,Wunderground v.1.15,2013-01-18 10:45:00,
2013-01-18 04:50:00,25.9,21.4,30.48,SSW,192,5.0,5.0,83,0.00,,,0.00,Wunderground v.1.15,2013-01-18 10:50:00,
2013-01-18 04:56:00,25.8,21.3,30.48,South,190,4.0,6.0,83,0.00,,,0.00,Wunderground v.1.15,2013-01-18 10:56:00,
2013-01-18 05:02:00,25.7,21.3,30.47,South,190,4.0,7.0,83,0.00,,,0.00,Wunderground v.1.15,2013-01-18 11:02:00,
2013-01-18 05:08:00,25.7,21.3,30.47,South,188,4.0,8.0,83,0.00,,,0.00,Wunderground v.1.15,2013-01-18 11:08:00,
2013-01-18 05:14:00,25.8,21.3,30.47,South,185,5.0,6.0,83,0.00,,,0.00,Wunderground v.1.15,2013-01-18 11:14:00,
2013-01-18 05:19:00,25.8,21.3,30.47,South,177,5.0,9.0,83,0.00,,,0.00,Wunderground v.1.15,2013-01-18 11:19:00,
2013-01-18 05:25:00,26.1,21.6,30.46,SSW,193,6.0,7.0,83,0.00,,,0.00,Wunderground v.1.15,2013-01-18 11:25:00,
2013-01-18 05:31:00,26.3,21.6,30.46,South,181,5.0,5.0,82,0.00,,,0.00,Wunderground v.1.15,2013-01-18 11:31:00,
2013-01-18 05:37:00,26.6,21.8,30.46,South,178,5.0,8.0,82,0.00,,,0.00,Wunderground v.1.15,2013-01-18 11:37:00,
2013-01-18 05:43:00,26.8,21.8,30.46,SSW,198,6.0,8.0,81,0.00,,,0.00,Wunderground v.1.15,2013-01-18 11:43:00,
2013-01-18 05:48:00,27.0,21.9,30.46,South,181,6.0,8.0,81,0.00,,,0.00,Wunderground v.1.15,2013-01-18 11:48:00,
2013-01-18 05:54:00,27.2,21.8,30.46,SSW,200,6.0,8.0,80,0.00,,,0.00,Wunderground v.1.15,2013-01-18 11:54:00,
2013-01-18 06:00:00,27.2,21.8,30.46,SSW,192,6.0,6.0,80,0.00,,,0.00,Wunderground v.1.15,2013-01-18 12:00:00,
2013-01-18 06:06:00,27.2,21.8,30.46,South,181,6.0,8.0,80,0.00,,,0.00,Wunderground v.1.15,2013-01-18 12:06:00,
2013-01-18 06:12:00,27.4,22.0,30.46,South,182,7.0,8.0,80,0.00,,,0.00,Wunderground v.1.15,2013-01-18 12:12:00,
2013-01-18 06:18:00,27.5,22.1,30.45,South,176,6.0,8.0,80,0.00,,,0.00,Wunderground v.1.15,2013-01-18 12:18:00,
2013-01-18 06:24:00,27.5,22.1,30.45,South,181,5.0,7.0,80,0.00,,,0.00,Wunderground v.1.15,2013-01-18 12:24:00,
2013-01-18 06:29:00,27.5,22.1,30.45,South,177,5.0,7.0,80,0.00,,,0.00,Wunderground v.1.15,2013-01-18 12:29:00,
2013-01-18 06:35:00,27.5,22.1,30.45,South,181,6.0,7.0,80,0.00,,,0.00,Wunderground v.1.15,2013-01-18 12:35:00,
2013-01-18 06:41:00,27.5,22.1,30.45,SSW,192,6.0,6.0,80,0.00,,,0.00,Wunderground v.1.15,2013-01-18 12:41:00,
2013-01-18 06:47:00,27.6,22.2,30.46,SSW,195,6.0,8.0,80,0.00,,,0.00,Wunderground v.1.15,2013-01-18 12:47:00,
2013-01-18 06:52:00,27.6,22.2,30.46,South,187,5.0,6.0,80,0.00,,,0.00,Wunderground v.1.15,2013-01-18 12:52:00,
2013-01-18 06:58:00,27.6,22.2,30.46,SSW,194,6.0,10.0,80,0.00,,,0.00,Wunderground v.1.15,2013-01-18 12:58:00,
2013-01-18 07:04:00,27.6,22.2,30.46,South,187,6.0,8.0,80,0.00,,,0.00,Wunderground v.1.15,2013-01-18 13:04:00,
2013-01-18 07:10:00,27.7,22.3,30.46,South,187,6.0,6.0,80,0.00,,,0.00,Wunderground v.1.15,2013-01-18 13:10:00,
2013-01-18 07:16:00,27.8,22.4,30.46,South,181,7.0,7.0,80,0.00,,,0.00,Wunderground v.1.15,2013-01-18 13:16:00,
2013-01-18 07:21:00,27.8,22.4,30.46,SSW,203,7.0,7.0,80,0.00,,,0.00,Wunderground v.1.15,2013-01-18 13:21:00,
2013-01-18 07:27:00,27.9,22.8,30.46,SSW,200,7.0,11.0,81,0.00,,,0.00,Wunderground v.1.15,2013-01-18 13:27:00,
2013-01-18 07:33:00,27.9,22.8,30.45,SSW,192,8.0,11.0,81,0.00,,,0.00,Wunderground v.1.15,2013-01-18 13:33:00,
2013-01-18 07:39:00,28.1,22.7,30.45,South,186,7.0,11.0,80,0.00,,,0.00,Wunderground v.1.15,2013-01-18 13:39:00,
2013-01-18 07:45:00,28.2,22.8,30.45,South,181,8.0,12.0,80,0.00,,,0.00,Wunderground v.1.15,2013-01-18 13:45:00,
2013-01-18 07:51:00,28.4,23.0,30.45,SSE,163,8.0,11.0,80,0.00,,,0.00,Wunderground v.1.15,2013-01-18 13:51:00,
2013-01-18 07:57:00,28.7,23.0,30.45,South,176,8.0,11.0,79,0.00,,,0.00,Wunderground v.1.15,2013-01-18 13:57:00,
2013-01-18 08:02:00,29.0,23.3,30.45,South,187,8.0,9.0,79,0.00,,,0.00,Wunderground v.1.15,2013-01-18 14:02:00,
2013-01-18 08:08:00,29.3,23.3,30.45,SSW,196,7.0,9.0,78,0.00,,,0.00,Wunderground v.1.15,2013-01-18 14:08:00,
2013-01-18 08:14:00,29.7,23.7,30.45,SSW,201,7.0,12.0,78,0.00,,,0.00,Wunderground v.1.15,2013-01-18 14:14:00,
2013-01-18 08:20:00,30.1,23.8,30.45,South,183,7.0,14.0,77,0.00,,,0.00,Wunderground v.1.15,2013-01-18 14:20:00,
2013-01-18 08:26:00,30.4,23.7,30.45,South,183,8.0,14.0,76,0.00,,,0.00,Wunderground v.1.15,2013-01-18 14:26:00,
2013-01-18 08:31:00,30.6,23.9,30.45,South,183,8.0,15.0,76,0.00,,,0.00,Wunderground v.1.15,2013-01-18 14:31:00,
2013-01-18 08:37:00,30.8,24.1,30.45,South,176,8.0,15.0,76,0.00,,,0.00,Wunderground v.1.15,2013-01-18 14:37:00,
2013-01-18 08:43:00,31.2,24.5,30.45,South,175,7.0,12.0,76,0.00,,,0.00,Wunderground v.1.15,2013-01-18 14:43:00,
2013-01-18 08:49:00,31.6,24.6,30.44,South,180,9.0,12.0,75,0.00,,,0.00,Wunderground v.1.15,2013-01-18 14:49:00,
2013-01-18 08:55:00,32.0,25.0,30.44,SSW,192,9.0,14.0,75,0.00,,,0.00,Wunderground v.1.15,2013-01-18 14:55:00,
2013-01-18 09:00:00,32.4,25.0,30.45,South,191,9.0,9.0,74,0.00,,,0.00,Wunderground v.1.15,2013-01-18 15:00:00,
2013-01-18 09:06:00,32.7,25.0,30.44,South,183,9.0,15.0,73,0.00,,,0.00,Wunderground v.1.15,2013-01-18 15:06:00,
2013-01-18 09:12:00,32.9,25.2,30.44,SSE,156,11.0,18.0,73,0.00,,,0.00,Wunderground v.1.15,2013-01-18 15:12:00,
2013-01-18 09:18:00,33.2,25.1,30.44,SSE,156,11.0,18.0,72,0.00,,,0.00,Wunderground v.1.15,2013-01-18 15:18:00,
2013-01-18 09:24:00,33.5,25.4,30.44,SSW,199,10.0,18.0,72,0.00,,,0.00,Wunderground v.1.15,2013-01-18 15:24:00,
2013-01-18 09:30:00,33.7,25.3,30.44,SSW,198,11.0,13.0,71,0.00,,,0.00,Wunderground v.1.15,2013-01-18 15:30:00,
2013-01-18 09:35:00,34.0,25.6,30.44,SW,215,11.0,13.0,71,0.00,,,0.00,Wunderground v.1.15,2013-01-18 15:35:00,
2013-01-18 09:41:00,34.4,25.6,30.44,SSW,194,10.0,13.0,70,0.00,,,0.00,Wunderground v.1.15,2013-01-18 15:41:00,
2013-01-18 09:47:00,34.8,26.0,30.44,South,187,9.0,13.0,70,0.00,,,0.00,Wunderground v.1.15,2013-01-18 15:47:00,
2013-01-18 09:53:00,35.2,25.7,30.43,SSW,196,9.0,14.0,68,0.00,,,0.00,Wunderground v.1.15,2013-01-18 15:53:00,
2013-01-18 09:59:00,35.7,25.8,30.43,SSE,164,11.0,14.0,67,0.00,,,0.00,Wunderground v.1.15,2013-01-18 15:59:00,
2013-01-18 10:04:00,36.1,26.2,30.42,SSW,195,9.0,16.0,67,0.00,,,0.00,Wunderground v.1.15,2013-01-18 16:04:00,
2013-01-18 10:10:00,36.6,26.7,30.42,South,176,9.0,9.0,67,0.00,,,0.00,Wunderground v.1.15,2013-01-18 16:10:00,
2013-01-18 10:16:00,37.0,26.7,30.42,SSE,157,9.0,11.0,66,0.00,,,0.00,Wunderground v.1.15,2013-01-18 16:16:00,
2013-01-18 10:22:00,37.3,27.0,30.42,SSE,168,9.0,9.0,66,0.00,,,0.00,Wunderground v.1.15,2013-01-18 16:22:00,
2013-01-18 10:28:00,37.5,26.8,30.41,South,190,10.0,16.0,65,0.00,,,0.00,Wunderground v.1.15,2013-01-18 16:28:00,
2013-01-18 10:33:00,37.6,26.5,30.41,South,169,11.0,14.0,64,0.00,,,0.00,Wunderground v.1.15,2013-01-18 16:33:00,
2013-01-18 10:39:00,37.8,26.3,30.40,SSE,163,12.0,14.0,63,0.00,,,0.00,Wunderground v.1.15,2013-01-18 16:39:00,
2013-01-18 10:45:00,38.2,26.3,30.40,SE,141,10.0,17.0,62,0.00,,,0.00,Wunderground v.1.15,2013-01-18 16:45:00,
2013-01-18 10:51:00,38.6,26.7,30.39,South,188,11.0,13.0,62,0.00,,,0.00,Wunderground v.1.15,2013-01-18 16:51:00,
2013-01-18 10:57:00,38.9,27.8,30.39,SSW,206,10.0,13.0,64,0.00,,,0.00,Wunderground v.1.15,2013-01-18 16:57:00,
2013-01-18 11:03:00,39.1,26.8,30.38,South,183,10.0,17.0,61,0.00,,,0.00,Wunderground v.1.15,2013-01-18 17:03:00,
2013-01-18 11:08:00,39.3,27.0,30.38,SSW,206,12.0,17.0,61,0.00,,,0.00,Wunderground v.1.15,2013-01-18 17:08:00,
2013-01-18 11:14:00,39.6,27.2,30.36,South,183,12.0,12.0,61,0.00,,,0.00,Wunderground v.1.15,2013-01-18 17:14:00,
2013-01-18 11:20:00,39.9,27.9,30.36,South,190,10.0,10.0,62,0.00,,,0.00,Wunderground v.1.15,2013-01-18 17:20:00,
2013-01-18 11:26:00,40.5,28.5,30.36,SSW,202,8.0,17.0,62,0.00,,,0.00,Wunderground v.1.15,2013-01-18 17:26:00,
2013-01-18 11:31:00,41.1,28.7,30.36,SSW,195,8.0,10.0,61,0.00,,,0.00,Wunderground v.1.15,2013-01-18 17:31:00,
2013-01-18 11:37:00,41.5,28.6,30.36,South,177,8.0,13.0,60,0.00,,,0.00,Wunderground v.1.15,2013-01-18 17:37:00,
2013-01-18 11:43:00,41.7,28.8,30.35,South,189,9.0,13.0,60,0.00,,,0.00,Wunderground v.1.15,2013-01-18 17:43:00,
2013-01-18 11:49:00,42.0,29.1,30.34,South,190,9.0,13.0,60,0.00,,,0.00,Wunderground v.1.15,2013-01-18 17:49:00,
2013-01-18 11:55:00,42.3,30.2,30.34,South,179,10.0,16.0,62,0.00,,,0.00,Wunderground v.1.15,2013-01-18 17:55:00,
2013-01-18 12:00:00,42.7,31.0,30.33,SSW,194,9.0,10.0,63,0.00,,,0.00,Wunderground v.1.15,2013-01-18 18:00:00,
2013-01-18 12:05:00,43.1,31.0,30.33,South,183,8.0,13.0,62,0.00,,,0.00,Wunderground v.1.15,2013-01-18 18:05:00,
2013-01-18 12:11:00,43.5,30.9,30.32,SSW,210,9.0,11.0,61,0.00,,,0.00,Wunderground v.1.15,2013-01-18 18:11:00,
2013-01-18 12:17:00,43.0,29.6,30.31,SSW,193,12.0,23.0,59,0.00,,,0.00,Wunderground v.1.15,2013-01-18 18:17:00,
2013-01-18 12:23:00,43.0,30.1,30.31,SSW,195,13.0,19.0,60,0.00,,,0.00,Wunderground v.1.15,2013-01-18 18:23:00,
2013-01-18 12:28:00,43.1,30.6,30.30,SSW,211,12.0,20.0,61,0.00,,,0.00,Wunderground v.1.15,2013-01-18 18:28:00,
2013-01-18 12:34:00,43.3,30.7,30.30,SSW,205,11.0,19.0,61,0.00,,,0.00,Wunderground v.1.15,2013-01-18 18:34:00,
2013-01-18 12:40:00,43.5,30.1,30.29,SSW,208,12.0,17.0,59,0.00,,,0.00,Wunderground v.1.15,2013-01-18 18:40:00,
2013-01-18 12:46:00,43.7,31.5,30.28,SSW,194,12.0,17.0,62,0.00,,,0.00,Wunderground v.1.15,2013-01-18 18:46:00,
2013-01-18 12:52:00,44.2,31.2,30.28,South,183,11.0,18.0,60,0.00,,,0.00,Wunderground v.1.15,2013-01-18 18:52:00,
2013-01-18 12:58:00,44.3,31.3,30.27,South,185,12.0,18.0,60,0.00,,,0.00,Wunderground v.1.15,2013-01-18 18:58:00,
2013-01-18 13:03:00,44.8,31.8,30.27,SE,141,10.0,13.0,60,0.00,,,0.00,Wunderground v.1.15,2013-01-18 19:03:00,
2013-01-18 13:09:00,45.2,32.1,30.27,SSW,213,10.0,14.0,60,0.00,,,0.00,Wunderground v.1.15,2013-01-18 19:09:00,
2013-01-18 13:15:00,45.5,32.4,30.26,South,171,10.0,13.0,60,0.00,,,0.00,Wunderground v.1.15,2013-01-18 19:15:00,
2013-01-18 13:21:00,45.6,32.9,30.26,South,175,9.0,14.0,61,0.00,,,0.00,Wunderground v.1.15,2013-01-18 19:21:00,
2013-01-18 13:27:00,45.5,32.4,30.25,SSE,156,10.0,16.0,60,0.00,,,0.00,Wunderground v.1.15,2013-01-18 19:27:00,
2013-01-18 13:33:00,45.5,32.4,30.25,South,188,10.0,13.0,60,0.00,,,0.00,Wunderground v.1.15,2013-01-18 19:33:00,
2013-01-18 13:39:00,45.7,32.6,30.25,SE,146,10.0,15.0,60,0.00,,,0.00,Wunderground v.1.15,2013-01-18 19:39:00,
2013-01-18 13:45:00,45.8,32.7,30.25,SSE,162,10.0,13.0,60,0.00,,,0.00,Wunderground v.1.15,2013-01-18 19:45:00,
2013-01-18 13:51:00,46.1,33.0,30.24,SSE,160,10.0,14.0,60,0.00,,,0.00,Wunderground v.1.15,2013-01-18 19:51:00,
2013-01-18 13:57:00,46.4,32.8,30.24,SSE,157,10.0,14.0,59,0.00,,,0.00,Wunderground v.1.15,2013-01-18 19:57:00,
2013-01-18 14:02:00,46.3,32.3,30.23,SSW,202,10.0,20.0,58,0.00,,,0.00,Wunderground v.1.15,2013-01-18 20:02:00,
2013-01-18 14:08:00,46.3,32.7,30.23,South,187,11.0,21.0,59,0.00,,,0.00,Wunderground v.1.15,2013-01-18 20:08:00,
2013-01-18 14:14:00,46.5,32.9,30.23,SW,218,10.0,15.0,59,0.00,,,0.00,Wunderground v.1.15,2013-01-18 20:14:00,
2013-01-18 14:20:00,46.5,32.5,30.23,South,176,10.0,18.0,58,0.00,,,0.00,Wunderground v.1.15,2013-01-18 20:20:00,
2013-01-18 14:26:00,46.4,32.8,30.23,SSW,212,11.0,18.0,59,0.00,,,0.00,Wunderground v.1.15,2013-01-18 20:26:00,
2013-01-18 14:31:00,46.5,32.9,30.22,SSW,192,11.0,14.0,59,0.00,,,0.00,Wunderground v.1.15,2013-01-18 20:31:00,
2013-01-18 14:37:00,46.6,33.4,30.22,SSW,192,11.0,15.0,60,0.00,,,0.00,Wunderground v.1.15,2013-01-18 20:37:00,
2013-01-18 14:43:00,46.5,33.4,30.21,SSE,167,10.0,13.0,60,0.00,,,0.00,Wunderground v.1.15,2013-01-18 20:43:00,
2013-01-18 14:49:00,46.3,33.6,30.21,SSW,200,10.0,13.0,61,0.00,,,0.00,Wunderground v.1.15,2013-01-18 20:49:00,
2013-01-18 14:55:00,46.4,33.7,30.20,SSW,202,10.0,10.0,61,0.00,,,0.00,Wunderground v.1.15,2013-01-18 20:55:00,
2013-01-18 15:00:00,46.3,33.2,30.20,SSE,160,10.0,10.0,60,0.00,,,0.00,Wunderground v.1.15,2013-01-18 21:00:00,
2013-01-18 15:05:00,46.3,33.2,30.20,South,181,11.0,13.0,60,0.00,,,0.00,Wunderground v.1.15,2013-01-18 21:05:00,
2013-01-18 15:11:00,46.3,33.2,30.20,South,171,11.0,16.0,60,0.00,,,0.00,Wunderground v.1.15,2013-01-18 21:11:00,
2013-01-18 15:17:00,46.4,33.3,30.19,SSE,163,11.0,16.0,60,0.00,,,0.00,Wunderground v.1.15,2013-01-18 21:17:00,
2013-01-18 15:23:00,46.5,33.4,30.19,South,175,11.0,14.0,60,0.00,,,0.00,Wunderground v.1.15,2013-01-18 21:23:00,
2013-01-18 15:28:00,46.5,33.8,30.19,SSW,200,10.0,14.0,61,0.00,,,0.00,Wunderground v.1.15,2013-01-18 21:28:00,
2013-01-18 15:34:00,46.5,32.9,30.19,South,182,10.0,15.0,59,0.00,,,0.00,Wunderground v.1.15,2013-01-18 21:34:00,
2013-01-18 15:40:00,46.5,32.9,30.18,SSW,208,10.0,10.0,59,0.00,,,0.00,Wunderground v.1.15,2013-01-18 21:40:00,
2013-01-18 15:46:00,46.4,32.8,30.18,South,173,11.0,16.0,59,0.00,,,0.00,Wunderground v.1.15,2013-01-18 21:46:00,
2013-01-18 15:52:00,46.3,32.7,30.18,South,187,11.0,16.0,59,0.00,,,0.00,Wunderground v.1.15,2013-01-18 21:52:00,
2013-01-18 15:57:00,46.1,32.6,30.17,SSE,167,11.0,16.0,59,0.00,,,0.00,Wunderground v.1.15,2013-01-18 21:57:00,
2013-01-18 16:03:00,46.0,32.9,30.17,South,174,10.0,14.0,60,0.00,,,0.00,Wunderground v.1.15,2013-01-18 22:03:00,
2013-01-18 16:09:00,45.7,32.6,30.17,SSE,160,10.0,14.0,60,0.00,,,0.00,Wunderground v.1.15,2013-01-18 22:09:00,
2013-01-18 16:15:00,45.3,32.6,30.17,SSE,167,11.0,13.0,61,0.00,,,0.00,Wunderground v.1.15,2013-01-18 22:15:00,
2013-01-18 16:21:00,45.0,32.3,30.16,South,173,11.0,11.0,61,0.00,,,0.00,Wunderground v.1.15,2013-01-18 22:21:00,
2013-01-18 16:26:00,44.8,32.2,30.16,South,178,10.0,15.0,61,0.00,,,0.00,Wunderground v.1.15,2013-01-18 22:26:00,
2013-01-18 16:32:00,44.6,32.4,30.16,South,177,10.0,14.0,62,0.00,,,0.00,Wunderground v.1.15,2013-01-18 22:32:00,
2013-01-18 16:38:00,44.4,32.2,30.16,South,174,10.0,17.0,62,0.00,,,0.00,Wunderground v.1.15,2013-01-18 22:38:00,
2013-01-18 16:44:00,44.0,32.2,30.16,South,172,10.0,16.0,63,0.00,,,0.00,Wunderground v.1.15,2013-01-18 22:44:00,
2013-01-18 16:50:00,43.6,31.8,30.16,SSE,154,10.0,14.0,63,0.00,,,0.00,Wunderground v.1.15,2013-01-18 22:50:00,
2013-01-18 16:55:00,43.3,31.9,30.16,SSE,159,11.0,15.0,64,0.00,,,0.00,Wunderground v.1.15,2013-01-18 22:55:00,
2013-01-18 17:00:00,43.0,31.6,30.16,SSE,164,11.0,12.0,64,0.00,,,0.00,Wunderground v.1.15,2013-01-18 23:00:00,
2013-01-18 17:06:00,42.6,31.7,30.16,SSW,196,10.0,14.0,65,0.00,,,0.00,Wunderground v.1.15,2013-01-18 23:06:00,
2013-01-18 17:11:00,42.3,31.7,30.16,SSE,160,10.0,10.0,66,0.00,,,0.00,Wunderground v.1.15,2013-01-18 23:11:00,
2013-01-18 17:17:00,42.0,31.5,30.16,SSW,196,9.0,14.0,66,0.00,,,0.00,Wunderground v.1.15,2013-01-18 23:17:00,
2013-01-18 17:23:00,41.8,31.6,30.16,SSE,150,9.0,15.0,67,0.00,,,0.00,Wunderground v.1.15,2013-01-18 23:23:00,
2013-01-18 17:29:00,41.6,31.4,30.15,SSE,167,9.0,15.0,67,0.00,,,0.00,Wunderground v.1.15,2013-01-18 23:29:00,
2013-01-18 17:35:00,41.5,31.7,30.15,South,174,10.0,14.0,68,0.00,,,0.00,Wunderground v.1.15,2013-01-18 23:35:00,
2013-01-18 17:41:00,41.4,31.6,30.15,South,185,11.0,13.0,68,0.00,,,0.00,Wunderground v.1.15,2013-01-18 23:41:00,
2013-01-18 17:47:00,41.3,31.5,30.15,South,174,10.0,13.0,68,0.00,,,0.00,Wunderground v.1.15,2013-01-18 23:47:00,
2013-01-18 17:52:00,41.2,31.4,30.15,SSE,167,9.0,14.0,68,0.00,,,0.00,Wunderground v.1.15,2013-01-18 23:52:00,
2013-01-18 17:58:00,41.2,31.4,30.15,SSW,197,11.0,14.0,68,0.00,,,0.00,Wunderground v.1.15,2013-01-18 23:58:00,
2013-01-18 18:04:00,41.1,31.3,30.15,South,187,10.0,15.0,68,0.00,,,0.00,Wunderground v.1.15,2013-01-19 00:04:00,
2013-01-18 18:10:00,40.9,31.5,30.15,South,186,10.0,10.0,69,0.00,,,0.00,Wunderground v.1.15,2013-01-19 00:10:00,
2013-01-18 18:16:00,40.7,31.3,30.14,South,184,11.0,15.0,69,0.00,,,0.00,Wunderground v.1.15,2013-01-19 00:16:00,
2013-01-18 18:21:00,40.5,31.1,30.14,South,191,11.0,12.0,69,0.00,,,0.00,Wunderground v.1.15,2013-01-19 00:21:00,
2013-01-18 18:27:00,40.4,31.4,30.14,South,173,11.0,21.0,70,0.00,,,0.00,Wunderground v.1.15,2013-01-19 00:27:00,
2013-01-18 18:33:00,40.4,31.4,30.14,South,169,11.0,17.0,70,0.00,,,0.00,Wunderground v.1.15,2013-01-19 00:33:00,
2013-01-18 18:39:00,40.4,31.0,30.14,South,186,11.0,17.0,69,0.00,,,0.00,Wunderground v.1.15,2013-01-19 00:39:00,
2013-01-18 18:44:00,40.4,31.0,30.13,South,187,12.0,16.0,69,0.00,,,0.00,Wunderground v.1.15,2013-01-19 00:44:00,
2013-01-18 18:49:00,40.5,31.1,30.13,South,185,12.0,16.0,69,0.00,,,0.00,Wunderground v.1.15,2013-01-19 00:49:00,
2013-01-18 18:55:00,40.5,30.8,30.13,SSE,153,12.0,19.0,68,0.00,,,0.00,Wunderground v.1.15,2013-01-19 00:55:00,
2013-01-18 19:00:00,40.5,31.1,30.13,SSE,158,12.0,12.0,69,0.00,,,0.00,Wunderground v.1.15,2013-01-19 01:00:00,
2013-01-18 19:06:00,40.5,30.8,30.13,South,183,11.0,12.0,68,0.00,,,0.00,Wunderground v.1.15,2013-01-19 01:06:00,
2013-01-18 19:12:00,40.6,30.9,30.13,SSE,158,12.0,16.0,68,0.00,,,0.00,Wunderground v.1.15,2013-01-19 01:12:00,
2013-01-18 19:18:00,40.6,30.9,30.13,SSW,212,12.0,16.0,68,0.00,,,0.00,Wunderground v.1.15,2013-01-19 01:18:00,
2013-01-18 19:24:00,40.9,30.8,30.12,South,190,12.0,13.0,67,0.00,,,0.00,Wunderground v.1.15,2013-01-19 01:24:00,
2013-01-18 19:29:00,41.0,30.9,30.12,South,187,13.0,22.0,67,0.00,,,0.00,Wunderground v.1.15,2013-01-19 01:29:00,
2013-01-18 19:34:00,40.9,30.8,30.12,South,186,13.0,17.0,67,0.00,,,0.00,Wunderground v.1.15,2013-01-19 01:34:00,
2013-01-18 19:39:00,40.9,30.8,30.11,SSE,158,13.0,17.0,67,0.00,,,0.00,Wunderground v.1.15,2013-01-19 01:39:00,
2013-01-18 19:45:00,40.8,30.7,30.11,South,179,12.0,13.0,67,0.00,,,0.00,Wunderground v.1.15,2013-01-19 01:45:00,
2013-01-18 19:50:00,40.8,30.7,30.11,South,171,14.0,14.0,67,0.00,,,0.00,Wunderground v.1.15,2013-01-19 01:50:00,
2013-01-18 19:56:00,40.8,30.7,30.11,South,181,15.0,17.0,67,0.00,,,0.00,Wunderground v.1.15,2013-01-19 01:56:00,
2013-01-18 20:02:00,40.9,30.4,30.10,SE,146,15.0,17.0,66,0.00,,,0.00,Wunderground v.1.15,2013-01-19 02:02:00,
2013-01-18 20:07:00,40.9,30.4,30.10,SSW,196,15.0,20.0,66,0.00,,,0.00,Wunderground v.1.15,2013-01-19 02:07:00,
2013-01-18 20:13:00,40.9,30.4,30.11,South,173,14.0,15.0,66,0.00,,,0.00,Wunderground v.1.15,2013-01-19 02:13:00,
2013-01-18 20:19:00,40.7,30.2,30.10,South,182,14.0,24.0,66,0.00,,,0.00,Wunderground v.1.15,2013-01-19 02:19:00,
2013-01-18 20:25:00,40.6,30.5,30.10,South,187,14.0,21.0,67,0.00,,,0.00,Wunderground v.1.15,2013-01-19 02:25:00,
2013-01-18 20:30:00,40.5,30.4,30.10,South,178,14.0,18.0,67,0.00,,,0.00,Wunderground v.1.15,2013-01-19 02:30:00,
2013-01-18 20:35:00,40.4,30.3,30.10,SSW,196,14.0,18.0,67,0.00,,,0.00,Wunderground v.1.15,2013-01-19 02:35:00,
2013-01-18 20:40:00,40.4,30.3,30.10,South,181,14.0,18.0,67,0.00,,,0.00,Wunderground v.1.15,2013-01-19 02:40:00,
2013-01-18 20:45:00,40.4,30.3,30.10,SSW,198,15.0,18.0,67,0.00,,,0.00,Wunderground v.1.15,2013-01-19 02:45:00,
2013-01-18 20:51:00,40.2,30.5,30.10,South,169,14.0,16.0,68,0.00,,,0.00,Wunderground v.1.15,2013-01-19 02:51:00,
2013-01-18 20:56:00,40.1,30.4,30.10,South,187,14.0,16.0,68,0.00,,,0.00,Wunderground v.1.15,2013-01-19 02:56:00,
2013-01-18 21:02:00,40.0,30.3,30.10,SSW,200,14.0,16.0,68,0.00,,,0.00,Wunderground v.1.15,2013-01-19 03:02:00,
2013-01-18 21:08:00,39.9,30.5,30.10,SSW,194,14.0,20.0,69,0.00,,,0.00,Wunderground v.1.15,2013-01-19 03:08:00,
2013-01-18 21:13:00,39.8,30.5,30.10,South,181,14.0,24.0,69,0.00,,,0.00,Wunderground v.1.15,2013-01-19 03:13:00,
2013-01-18 21:18:00,39.7,30.4,30.10,South,188,14.0,24.0,69,0.00,,,0.00,Wunderground v.1.15,2013-01-19 03:18:00,
2013-01-18 21:24:00,39.4,30.4,30.10,South,189,13.0,14.0,70,0.00,,,0.00,Wunderground v.1.15,2013-01-19 03:24:00,
2013-01-18 21:29:00,39.3,30.3,30.11,SSW,202,13.0,14.0,70,0.00,,,0.00,Wunderground v.1.15,2013-01-19 03:29:00,
2013-01-18 21:34:00,39.2,30.6,30.11,South,181,13.0,17.0,71,0.00,,,0.00,Wunderground v.1.15,2013-01-19 03:34:00,
2013-01-18 21:39:00,39.1,30.5,30.11,South,179,13.0,18.0,71,0.00,,,0.00,Wunderground v.1.15,2013-01-19 03:39:00,
2013-01-18 21:45:00,39.0,30.4,30.11,SSE,168,12.0,13.0,71,0.00,,,0.00,Wunderground v.1.15,2013-01-19 03:45:00,
2013-01-18 21:51:00,38.9,30.3,30.11,SSW,201,11.0,11.0,71,0.00,,,0.00,Wunderground v.1.15,2013-01-19 03:51:00,
2013-01-18 21:56:00,38.8,30.5,30.11,South,191,11.0,16.0,72,0.00,,,0.00,Wunderground v.1.15,2013-01-19 03:56:00,
2013-01-18 22:01:00,38.6,30.4,30.11,SSW,198,10.0,12.0,72,0.00,,,0.00,Wunderground v.1.15,2013-01-19 04:01:00,
2013-01-18 22:06:00,38.5,30.6,30.11,SSW,192,10.0,14.0,73,0.00,,,0.00,Wunderground v.1.15,2013-01-19 04:06:00,
2013-01-18 22:12:00,38.5,30.6,30.11,South,191,11.0,14.0,73,0.00,,,0.00,Wunderground v.1.15,2013-01-19 04:12:00,
2013-01-18 22:17:00,38.6,30.7,30.11,South,179,12.0,16.0,73,0.00,,,0.00,Wunderground v.1.15,2013-01-19 04:17:00,
2013-01-18 22:22:00,38.6,30.4,30.11,South,183,11.0,18.0,72,0.00,,,0.00,Wunderground v.1.15,2013-01-19 04:22:00,
2013-01-18 22:28:00,38.7,30.4,30.11,SSW,200,12.0,18.0,72,0.00,,,0.00,Wunderground v.1.15,2013-01-19 04:28:00,
2013-01-18 22:33:00,38.9,30.6,30.11,SSW,204,12.0,14.0,72,0.00,,,0.00,Wunderground v.1.15,2013-01-19 04:33:00,
2013-01-18 22:39:00,39.0,30.4,30.11,SSW,197,13.0,14.0,71,0.00,,,0.00,Wunderground v.1.15,2013-01-19 04:39:00,
2013-01-18 22:45:00,38.8,30.5,30.11,SSW,195,12.0,18.0,72,0.00,,,0.00,Wunderground v.1.15,2013-01-19 04:45:00,
2013-01-18 22:50:00,38.7,30.4,30.11,SSW,212,12.0,15.0,72,0.00,,,0.00,Wunderground v.1.15,2013-01-19 04:50:00,
2013-01-18 22:55:00,38.6,30.4,30.11,SSW,196,11.0,15.0,72,0.00,,,0.00,Wunderground v.1.15,2013-01-19 04:55:00,
2013-01-18 23:00:00,38.5,30.3,30.11,SSW,200,10.0,10.0,72,0.00,,,0.00,Wunderground v.1.15,2013-01-19 05:00:00,
2013-01-18 23:04:00,38.4,30.5,30.11,South,188,10.0,14.0,73,0.00,,,0.00,Wunderground v.1.15,2013-01-19 05:04:00,
2013-01-18 23:05:00,38.4,30.5,30.11,South,185,10.0,15.0,73,0.00,,,0.00,Wunderground v.1.15,2013-01-19 05:05:00,
2013-01-18 23:06:00,38.4,30.5,30.11,South,187,10.0,16.0,73,0.00,,,0.00,Wunderground v.1.15,2013-01-19 05:06:00,
2013-01-18 23:11:00,38.3,30.4,30.11,SSE,167,10.0,14.0,73,0.00,,,0.00,Wunderground v.1.15,2013-01-19 05:11:00,
2013-01-18 23:17:00,38.2,30.6,30.11,SSW,196,11.0,17.0,74,0.00,,,0.00,Wunderground v.1.15,2013-01-19 05:17:00,
2013-01-18 23:23:00,38.1,30.5,30.11,SSW,199,11.0,13.0,74,0.00,,,0.00,Wunderground v.1.15,2013-01-19 05:23:00,
2013-01-18 23:29:00,38.0,30.4,30.10,SSE,164,11.0,15.0,74,0.00,,,0.00,Wunderground v.1.15,2013-01-19 05:29:00,
2013-01-18 23:34:00,37.9,30.4,30.10,South,177,11.0,15.0,74,0.00,,,0.00,Wunderground v.1.15,2013-01-19 05:34:00,
2013-01-18 23:39:00,37.8,30.6,30.10,SSE,163,12.0,15.0,75,0.00,,,0.00,Wunderground v.1.15,2013-01-19 05:39:00,
2013-01-18 23:45:00,37.8,30.6,30.10,SSW,197,12.0,16.0,75,0.00,,,0.00,Wunderground v.1.15,2013-01-19 05:45:00,
2013-01-18 23:51:00,37.8,30.6,30.10,SW,216,12.0,14.0,75,0.00,,,0.00,Wunderground v.1.15,2013-01-19 05:51:00,
2013-01-18 23:57:00,37.8,30.6,30.10,South,177,11.0,14.0,75,0.00,,,0.00,Wunderground v.1.15,2013-01-19 05:57:00,